Voltar ao catálogo

COSMOS 2251 DEB

AtivoLEO
NORAD 37486·DEBRIS·🇷🇺 Russia

Lançado Jun 16, 1993 de Plesetsk Cosmodrome

Loading…

Próximas Passagens (próximas 24 horas)

TLE

AtualizadoSource: Space-Track

Época: Sep 13, 2026, 23:35 UTC

1 37486U 93036BLP 26256.98279935  .00003346  00000-0  13586-2 0  9993
2 37486  73.6933 335.7435 0217917 163.7993  10.4773 14.15939659672623

Acompanhe COSMOS 2251 DEB em tempo real com AllMySat

Download on the App Store